Apalachicola, FL

5:52 PM EST on February 19, 2018 (GMT -0500)
Apalachicola Municipal

Weather History for KAAF - September, 2013

Change the Weather History Date:

Wednesday, September 4, 2013

  Actual Average Record
Temperature  
Mean Temperature 82 °F 81 °F  
Max Temperature 90 °F 89 °F 95 °F (1944)
Min Temperature 74 °F 73 °F 69 °F (1945)
Degree Days  
Heating Degree Days 0    
Month to date heating degree days 0  
Since 1 July heating degree days 0  
Cooling Degree Days 17    
Month to date cooling degree days 71  
Year to date cooling degree days 1991  
Growing Degree Days 32 (Base 50)    
Moisture  
Dew Point 74 °F    
Average Humidity 77    
Maximum Humidity 94    
Minimum Humidity 59    
Precipitation  
Precipitation 0.00 in 0.24 in 2.84 in (2011)
Month to date precipitation 0.38 0.96  
Year to date precipitation 43.76 40.90  
Sea Level Pressure  
Sea Level Pressure 30.03 in    
Wind  
Wind Speed 4 mph (SSW)    
Max Wind Speed 13 mph    
Max Gust Speed 21 mph    
Visibility 10 miles    
Events      
T = Trace of Precipitation, MM = Missing Value Source: NWS Daily Summary

Daily Weather History Graph

Daily Weather History Graph

Search for Another Location

Airport or City:

Trip Planner

Search our weather history database for the weather conditions in past years. The results will help you decide how hot, cold, wet, or windy it might be!

Date:

Astronomy

Sep. 04, 2013 Rise Set
Actual Time 7:19 AM EDT 7:58 PM EDT
Civil Twilight 6:54 AM EDT 8:22 PM EDT
Nautical Twilight 6:26 AM EDT 8:51 PM EDT
Astronomical Twilight 5:57 AM EDT 9:19 PM EDT
Moon 6:30 AM EDT (9/4) 7:20 PM EDT (9/4)
Length of Visible Light 13h 27m
Length of Day
12h 39m
Waning Crescent, 1% of the Moon is Illuminated
Sep 4
Waning Crescent
Sep 5
New
Sep 12
First Quarter
Sep 19
Full
Sep 26
Last Quarter

Hourly Weather History & Observations

Time (EDT) Temp. Heat Index Dew Point Humidity Pressure Visibility Wind Dir Wind Speed Gust Speed Precip Events Conditions
12:53 AM 77.0 °F - 73.0 °F 88% 29.99 in 10.0 mi Calm Calm - N/A   Clear
1:53 AM 75.9 °F - 73.0 °F 91% 29.99 in 10.0 mi ENE 4.6 mph - N/A   Clear
2:53 AM 75.9 °F - 73.0 °F 91% 29.98 in 10.0 mi Calm Calm - N/A   Clear
3:53 AM 75.9 °F - 73.0 °F 91% 29.98 in 10.0 mi Calm Calm - N/A   Clear
4:53 AM 75.0 °F - 73.0 °F 94% 29.99 in 10.0 mi Calm Calm - N/A   Clear
5:53 AM 75.0 °F - 72.0 °F 90% 29.99 in 10.0 mi Calm Calm - N/A   Clear
6:17 AM 75.2 °F - 71.6 °F 89% 29.99 in 10.0 mi Calm Calm - N/A   Partly Cloudy
6:53 AM 75.0 °F - 72.0 °F 90% 30.00 in 10.0 mi Calm Calm - N/A   Clear
7:53 AM 75.9 °F - 73.0 °F 91% 30.02 in 9.0 mi Calm Calm - N/A   Clear
8:53 AM 82.0 °F 89.4 °F 75.9 °F 82% 30.04 in 10.0 mi Calm Calm - N/A   Clear
9:53 AM 84.9 °F 92.1 °F 73.9 °F 69% 30.06 in 10.0 mi Calm Calm - N/A   Clear
10:53 AM 84.9 °F 92.1 °F 73.9 °F 69% 30.07 in 10.0 mi South 5.8 mph - N/A   Partly Cloudy
11:53 AM 88.0 °F 95.6 °F 73.0 °F 61% 30.08 in 10.0 mi SSE 5.8 mph - N/A   Clear
12:53 PM 88.0 °F 96.5 °F 73.9 °F 63% 30.08 in 10.0 mi South 9.2 mph - N/A   Clear
2:53 PM 89.1 °F 98.0 °F 73.9 °F 61% 30.05 in 10.0 mi SSW 9.2 mph - N/A   Partly Cloudy
3:53 PM 89.1 °F 100.2 °F 75.9 °F 65% 30.04 in 10.0 mi SSW 9.2 mph - N/A   Clear
4:53 PM 89.1 °F 98.0 °F 73.9 °F 61% 30.02 in 10.0 mi South 11.5 mph - N/A   Clear
5:53 PM 88.0 °F 96.5 °F 73.9 °F 63% 30.02 in 10.0 mi SSW 9.2 mph - N/A   Clear
6:53 PM 87.1 °F 95.4 °F 73.9 °F 65% 30.03 in 10.0 mi SSW 6.9 mph - N/A   Clear
7:53 PM 84.9 °F 92.1 °F 73.9 °F 69% 30.04 in 10.0 mi SW 5.8 mph - N/A   Partly Cloudy
8:53 PM 84.0 °F 91.2 °F 73.9 °F 72% 30.06 in 10.0 mi SW 5.8 mph - 0.01 in   Clear
9:53 PM 84.0 °F 91.2 °F 73.9 °F 72% 30.08 in 10.0 mi WSW 3.5 mph - N/A   Clear
10:43 PM 82.4 °F 89.5 °F 75.2 °F 79% 30.09 in 10.0 mi Calm Calm - N/A   Mostly Cloudy
10:53 PM 81.0 °F 86.7 °F 75.0 °F 82% 30.08 in 10.0 mi Calm Calm - N/A   Mostly Cloudy
11:53 PM 78.1 °F - 73.9 °F 87% 30.06 in 10.0 mi Calm Calm - N/A   Clear